Change the Weather History Date:

Tuesday, December 31, 2013

  Actual Average Record
Temperature  
Mean Temperature 42 °F 46 °F  
Max Temperature 60 °F 59 °F 84 °F (1951)
Min Temperature 24 °F 33 °F 15 °F (1958)
Degree Days  
Heating Degree Days 23 19  
Month to date heating degree days 623 563  
Since 1 July heating degree days 1099 967  
Cooling Degree Days 0 0  
Month to date cooling degree days 3 1  
Year to date cooling degree days 2863 2503  
Moisture  
Dew Point 28 °F    
Average Humidity 61    
Maximum Humidity 92    
Minimum Humidity 29    
Precipitation  
Precipitation 0.00 in 0.03 in 1.26 in (1984)
Month to date precipitation 1.15 0.85  
Year to date precipitation 19.80 21.25  
Snow  
Snow 0.00 in 0.00 in 1.00 in (1978)
Month to date snowfall 1.5 0.3  
Since 1 July snowfall 1.5 0.6  
Snow Depth 0.00 in    
Sea Level Pressure  
Sea Level Pressure 30.31 in    
Wind  
Wind Speed 7 mph (SSW)    
Max Wind Speed 18 mph    
Max Gust Speed 23 mph    
Visibility 10 miles    
Events      
T = Trace of Precipitation, MM = Missing Value Source: NWS Daily Summary

Daily Weather History Graph

Daily Weather History Graph

Search for Another Location

Airport or City:

Trip Planner

Search our weather history database for the weather conditions in past years. The results will help you decide how hot, cold, wet, or windy it might be!

Date:

Astronomy

Dec. 31, 2013 Rise Set
Actual Time 7:40 AM CST 5:49 PM CST
Civil Twilight 7:14 AM CST 6:16 PM CST
Nautical Twilight 6:43 AM CST 6:46 PM CST
Astronomical Twilight 6:14 AM CST 7:16 PM CST
Moon 6:38 AM CST (12/31) 5:24 PM CST (12/31)
Length of Visible Light 11h 02m
Length of Day
10h 08m
Waning Crescent, 1% of the Moon is Illuminated
Dec 31
Waning Crescent
Jan 1
New
Jan 7
First Quarter
Jan 15
Full
Jan 23
Last Quarter

Hourly Weather History & Observations

Time (CST) Temp. Windchill Dew Point Humidity Pressure Visibility Wind Dir Wind Speed Gust Speed Precip Events Conditions
12:51 AM 28.9 °F - 24.1 °F 82% 30.40 in 10.0 mi Calm Calm - N/A   Clear
1:51 AM 27.0 °F 21.6 °F 24.1 °F 89% 30.41 in 10.0 mi WSW 4.6 mph - N/A   Clear
2:51 AM 28.0 °F 24.2 °F 25.0 °F 88% 30.38 in 10.0 mi SW 3.5 mph - N/A   Clear
3:51 AM 27.0 °F 18.7 °F 24.1 °F 89% 30.41 in 10.0 mi South 8.1 mph - N/A   Clear
4:51 AM 28.9 °F 21.9 °F 25.0 °F 85% 30.39 in 10.0 mi SSW 6.9 mph - N/A   Clear
5:51 AM 25.0 °F 20.7 °F 21.9 °F 88% 30.40 in 10.0 mi WSW 3.5 mph - N/A   Clear
6:51 AM 26.1 °F 21.9 °F 24.1 °F 92% 30.42 in 10.0 mi South 3.5 mph - N/A   Clear
7:51 AM 26.1 °F 21.9 °F 23.0 °F 88% 30.43 in 10.0 mi WSW 3.5 mph - N/A   Clear
8:51 AM 30.0 °F 26.5 °F 26.1 °F 85% 30.44 in 10.0 mi SSW 3.5 mph - N/A   Clear
9:51 AM 37.0 °F - 28.9 °F 73% 30.43 in 10.0 mi Calm Calm - N/A   Clear
10:51 AM 46.0 °F - 32.0 °F 58% 30.41 in 10.0 mi Calm Calm - N/A   Clear
11:51 AM 53.1 °F - 30.9 °F 43% 30.36 in 10.0 mi SSE 9.2 mph - N/A   Clear
12:51 PM 57.9 °F - 30.0 °F 35% 30.31 in 10.0 mi South 8.1 mph 16.1 mph N/A   Clear
1:51 PM 59.0 °F - 30.0 °F 33% 30.26 in 10.0 mi SSW 15.0 mph - N/A   Clear
2:51 PM 60.1 °F - 30.0 °F 32% 30.23 in 10.0 mi SSW 10.4 mph - N/A   Clear
3:51 PM 60.1 °F - 28.9 °F 31% 30.22 in 10.0 mi SW 13.8 mph - N/A   Clear
4:51 PM 59.0 °F - 28.0 °F 31% 30.22 in 10.0 mi SSW 15.0 mph - N/A   Clear
5:51 PM 54.0 °F - 28.9 °F 38% 30.22 in 10.0 mi South 8.1 mph - N/A   Clear
6:51 PM 50.0 °F - 30.0 °F 46% 30.22 in 10.0 mi South 8.1 mph - N/A   Clear
7:51 PM 43.0 °F 37.7 °F 30.0 °F 60% 30.22 in 10.0 mi SSW 9.2 mph - N/A   Clear
8:51 PM 45.0 °F 40.6 °F 30.0 °F 56% 30.21 in 10.0 mi South 8.1 mph - N/A   Clear
9:51 PM 43.0 °F 37.2 °F 30.9 °F 62% 30.19 in 10.0 mi South 10.4 mph - N/A   Clear
10:51 PM 44.1 °F 37.7 °F 30.9 °F 60% 30.17 in 10.0 mi SSW 12.7 mph - N/A   Clear
11:51 PM 42.1 °F 35.7 °F 30.9 °F 65% 30.16 in 10.0 mi SSW 11.5 mph - N/A   Clear